(335645) = 2006 KP55

Discovered at Kitt Peak on 2006-05-21 by Spacewatch.

Orbit

Orbit type: Main Belt

Note: WebGL enabled browser required.

epoch2023-09-13.0
epoch JD2460200.5
perihelion date2023-06-16.53249
perihelion JD2460112.03249
argument of perihelion (°)108.07947
ascending node (°)173.23189
inclination (°)16.62328
eccentricity0.2100632
perihelion distance (AU)2.4850959
Tisserand w.r.t. Jupiter3.1
ΔV w.r.t. Earth (km/sec)11.1
semimajor axis (AU)3.1459426
mean anomaly (°)15.62649
mean daily motion (°/day)0.17663540
aphelion distance (AU)3.807
period (years)5.58
P-vector [x]0.20082287
P-vector [y]-0.97163982
P-vector [z]-0.12484481
Q-vector [x]0.97904724
Q-vector [y]0.20345338
Q-vector [z]-0.00855722
absolute magnitude16.15
phase slope0.15
uncertainty0
referenceMPO 779386
observations used178
oppositions13
arc length (days)10838
first opposition used1994
last opposition used2023
residual rms (arc-secs)0.74
perturbers coarse indicatorM-v
perturbers precise indicator003Ek
first observation date used1994-03-07.0
last observation date used2023-11-08.0
computer nameMPCLINUX
JD of orbit computation2456152.595768
perihelion JD uncertainty (days)9.0693E-05
argument of perihelion uncertainty (°)3.0251E-05
ascending node uncertainty (°)2.1006E-05
inclination uncertainty (°)6.4620E-06
eccentricity uncertainty 5.0676E-08
perihelion distance uncertainty (AU)1.5623E-07
Minimum Orbit Intersection Distances (in AU)
for orbit epoch: 2460200.5, reference: E2023-VC7
Mercury2.0634
Venus1.8028
Earth1.52898
Mars1.18934
Jupiter1.78876
Saturn5.48226
Uranus14.9685
Neptune26.3923

Observations

183 total observations over interval: 1994 03 07.27833 – 2023 11 08.219816
These data are available for download (format description).

Date (UT) J2000 RA J2000 Dec Magn Location Ref
1994 03 07.27833 10 52 00.40 +02 55 48.8 20.9 V 691 – Steward Observatory, Kitt Peak-Spacewatch MPS 291765
1994 03 07.30172 10 51 59.36 +02 56 01.4   691 – Steward Observatory, Kitt Peak-Spacewatch MPS 291765
1994 03 07.32492 10 51 58.33 +02 56 13.8   691 – Steward Observatory, Kitt Peak-Spacewatch MPS 291765
2002 11 07.305720 03 41 15.606 -00 23 46.12 21.59 V 645 – Apache Point-Sloan Digital Sky Survey MPS 291765
2002 11 07.309192 03 41 15.450 -00 23 47.24 22.60   645 – Apache Point-Sloan Digital Sky Survey MPS 291765
2006 04 20.43763 17 00 48.64 -00 42 55.6 20.4 V 691 – Steward Observatory, Kitt Peak-Spacewatch MPS 291765
2006 04 20.45497 17 00 48.63 -00 42 46.1 20.4 V 691 – Steward Observatory, Kitt Peak-Spacewatch MPS 291765
2006 04 20.46990 17 00 48.57 -00 42 38.2 20.5 V 691 – Steward Observatory, Kitt Peak-Spacewatch MPS 291765
2006 05 21.41246 16 49 18.25 +03 35 41.9 20.0 V 691 – Steward Observatory, Kitt Peak-Spacewatch MPS 172951
2006 05 21.42987 16 49 17.53 +03 35 48.4 20.1 V 691 – Steward Observatory, Kitt Peak-Spacewatch MPS 172951
2006 05 21.44728 16 49 16.81 +03 35 54.7 20.1 V 691 – Steward Observatory, Kitt Peak-Spacewatch MPS 172951
2006 05 25.36793 16 46 36.66 +03 58 22.8 19.7 V 691 – Steward Observatory, Kitt Peak-Spacewatch MPS 172951
2006 05 25.38531 16 46 35.89 +03 58 27.9 19.9 V 691 – Steward Observatory, Kitt Peak-Spacewatch MPS 172951
2006 05 25.40270 16 46 35.14 +03 58 33.0 19.9 V 691 – Steward Observatory, Kitt Peak-Spacewatch MPS 172951
2007 09 10.38474 01 13 41.06 +01 17 15.3 20.6 V 691 – Steward Observatory, Kitt Peak-Spacewatch MPS 291765
2007 09 10.40233 01 13 40.58 +01 17 06.0 20.4 V 691 – Steward Observatory, Kitt Peak-Spacewatch MPS 291765
2007 09 10.41991 01 13 40.10 +01 16 56.7 20.3 V 691 – Steward Observatory, Kitt Peak-Spacewatch MPS 291765
2007 09 18.36691 01 09 36.69 +00 03 25.3 20.1 V 691 – Steward Observatory, Kitt Peak-Spacewatch MPS 291765
2007 09 18.38447 01 09 36.15 +00 03 15.5 20.4 V 691 – Steward Observatory, Kitt Peak-Spacewatch MPS 291765
2007 09 18.40205 01 09 35.44 +00 03 05.0 20.5 V 691 – Steward Observatory, Kitt Peak-Spacewatch MPS 291765
2011 03 05.33698 12 51 01.81 -00 53 16.2 21.0 V 691 – Steward Observatory, Kitt Peak-Spacewatch MPS 373453
2011 03 05.35469 12 51 01.39 -00 53 07.1 20.4 V 691 – Steward Observatory, Kitt Peak-Spacewatch MPS 373453
2011 03 05.37241 12 51 00.92 -00 52 58.7 20.8 V 691 – Steward Observatory, Kitt Peak-Spacewatch MPS 373453
2011 04 01.35231 12 35 00.252 +03 17 35.61 20.6 w F51 – Pan-STARRS 1, Haleakala MPS 377181
2011 04 01.39827 12 34 58.282 +03 18 01.49 20.8 w F51 – Pan-STARRS 1, Haleakala MPS 377181
2011 04 01.41251 12 34 57.677 +03 18 09.42 20.6 w F51 – Pan-STARRS 1, Haleakala MPS 377181
2011 05 09.16440 12 15 16.27 +07 42 31.3 20.7 V G96 – Mt. Lemmon Survey MPS 382178
2011 05 09.17246 12 15 16.16 +07 42 33.1 20.8 V G96 – Mt. Lemmon Survey MPS 382178
2011 05 09.18057 12 15 16.05 +07 42 35.1 21.0 V G96 – Mt. Lemmon Survey MPS 382178
2011 05 09.18863 12 15 15.91 +07 42 36.7 20.7 V G96 – Mt. Lemmon Survey MPS 382178
2012 05 20.39625 20 52 06.74 +01 08 06.0 20.5 V G96 – Mt. Lemmon Survey MPS 424948
2012 05 20.40388 20 52 07.06 +01 08 08.9 20.6 V G96 – Mt. Lemmon Survey MPS 424948
2012 05 20.41084 20 52 07.32 +01 08 11.6 20.5 V G96 – Mt. Lemmon Survey MPS 424948
2012 05 20.41785 20 52 07.57 +01 08 14.4 20.4 V G96 – Mt. Lemmon Survey MPS 424948
2012 08 05.36642 20 40 22.435 +00 28 18.08 19.3 i F51 – Pan-STARRS 1, Haleakala MPS 429038
2012 08 05.37736 20 40 21.966 +00 28 12.12 19.4 i F51 – Pan-STARRS 1, Haleakala MPS 429038
2012 08 09.25406 20 37 49.08 -00 08 39.6 19.4 G G45 – Space Surveillance Telescope, Atom Site MPS 1609686
2012 08 09.26548 20 37 48.67 -00 08 46.2 19.5 G G45 – Space Surveillance Telescope, Atom Site MPS 1609686
2012 08 09.37243 20 37 44.35 -00 09 48.7 19.9 G G45 – Space Surveillance Telescope, Atom Site MPS 1609686
2012 08 09.41716 20 37 42.59 -00 10 15.4 19.6 G G45 – Space Surveillance Telescope, Atom Site MPS 1609686
2012 08 12.36680 20 35 51.552 -00 39 43.83 19.6 r F51 – Pan-STARRS 1, Haleakala MPS 429360
2012 08 12.37658 20 35 51.179 -00 39 49.66 19.4 r F51 – Pan-STARRS 1, Haleakala MPS 429360
2012 08 12.38777 20 35 50.726 -00 39 56.60 20.2 g F51 – Pan-STARRS 1, Haleakala MPS 429360
2012 08 12.39963 20 35 50.279 -00 40 03.72 20.0 g F51 – Pan-STARRS 1, Haleakala MPS 429360
2016 01 12.52723 10 17 47.219 -00 22 09.62 21.5 w F51 – Pan-STARRS 1, Haleakala MPS 671524
2016 01 12.55143 10 17 46.740 -00 22 06.49 21.7 w F51 – Pan-STARRS 1, Haleakala MPS 671524
2016 01 12.56352 10 17 46.487 -00 22 05.20 21.5 w F51 – Pan-STARRS 1, Haleakala MPS 671524
2016 01 17.57443 10 15 58.705 -00 09 53.62 21.6 w F51 – Pan-STARRS 1, Haleakala MPS 673803
2016 01 17.58654 10 15 58.414 -00 09 51.40 21.6 w F51 – Pan-STARRS 1, Haleakala MPS 673803
2016 01 17.59857 10 15 58.102 -00 09 49.39 21.5 w F51 – Pan-STARRS 1, Haleakala MPS 673803
2016 01 17.61058 10 15 57.808 -00 09 47.41 21.6 w F51 – Pan-STARRS 1, Haleakala MPS 673803
2016 02 06.47344 10 05 07.722 +01 16 20.93 21.1 w F51 – Pan-STARRS 1, Haleakala MPS 682190
2016 02 06.48671 10 05 07.182 +01 16 25.41 21.1 w F51 – Pan-STARRS 1, Haleakala MPS 682190
2016 02 06.49992 10 05 06.629 +01 16 29.91 21.3 w F51 – Pan-STARRS 1, Haleakala MPS 682190
2016 02 06.51319 10 05 06.093 +01 16 34.62 21.1 w F51 – Pan-STARRS 1, Haleakala MPS 682190
2016 02 14.38762 09 59 40.330 +02 05 27.19 20.9 r F51 – Pan-STARRS 1, Haleakala MPS 685975
2016 02 14.41394 09 59 39.177 +02 05 37.39 20.9 r F51 – Pan-STARRS 1, Haleakala MPS 685975
2016 02 14.42736 09 59 38.573 +02 05 42.97 21.3 r F51 – Pan-STARRS 1, Haleakala MPS 685975
2016 02 15.40669 09 58 56.830 +02 12 14.74 20.6 r F51 – Pan-STARRS 1, Haleakala MPS 685975
2016 02 15.41962 09 58 56.260 +02 12 20.06 20.7 r F51 – Pan-STARRS 1, Haleakala MPS 685975
2016 02 15.43279 09 58 55.691 +02 12 25.27 20.7 r F51 – Pan-STARRS 1, Haleakala MPS 685975
2016 03 05.35870 09 45 46.052 +04 30 07.12 21.0 w F51 – Pan-STARRS 1, Haleakala MPS 692345
2016 03 05.37082 09 45 45.589 +04 30 12.61 21.1 w F51 – Pan-STARRS 1, Haleakala MPS 692345
2016 03 05.38295 09 45 45.086 +04 30 18.17 21.2 w F51 – Pan-STARRS 1, Haleakala MPS 692345
2016 03 05.39506 09 45 44.603 +04 30 23.75 21.2 w F51 – Pan-STARRS 1, Haleakala MPS 692345
2016 03 13.29097 09 41 03.677 +05 29 16.77 21.3 w F51 – Pan-STARRS 1, Haleakala MPS 695676
2016 03 13.31580 09 41 02.838 +05 29 27.79 21.5 w F51 – Pan-STARRS 1, Haleakala MPS 695676
2016 03 13.32822 09 41 02.420 +05 29 33.19 21.3 w F51 – Pan-STARRS 1, Haleakala MPS 695676
2017 04 06.50497 15 52 15.829 -01 23 39.35 20.1 i F51 – Pan-STARRS 1, Haleakala MPS 789760
2017 04 06.51676 15 52 15.723 -01 23 32.57 20.0 i F51 – Pan-STARRS 1, Haleakala MPS 789760
2017 04 06.52852 15 52 15.626 -01 23 25.58 20.1 i F51 – Pan-STARRS 1, Haleakala MPS 789760
2017 04 06.54028 15 52 15.530 -01 23 19.03 20.1 i F51 – Pan-STARRS 1, Haleakala MPS 789760
2017 04 20.42433 15 48 30.59 +00 51 36.1 19.7 V G96 – Mt. Lemmon Survey MPS 792692
2017 04 20.42860 15 48 30.47 +00 51 38.3 19.9 V G96 – Mt. Lemmon Survey MPS 792692
2017 04 20.43288 15 48 30.36 +00 51 40.8 19.9 V G96 – Mt. Lemmon Survey MPS 792692
2017 04 20.43715 15 48 30.24 +00 51 43.2 19.8 V G96 – Mt. Lemmon Survey MPS 792692
2017 04 30.44401 15 43 19.94 +02 24 53.0 20.0 V G96 – Mt. Lemmon Survey MPS 796337
2017 04 30.44829 15 43 19.78 +02 24 55.0 19.8 V G96 – Mt. Lemmon Survey MPS 796337
2017 04 30.45256 15 43 19.61 +02 24 57.6 19.9 V G96 – Mt. Lemmon Survey MPS 796337
2017 04 30.45690 15 43 19.46 +02 24 59.5 19.8 V G96 – Mt. Lemmon Survey MPS 796337
2017 05 14.35420 15 33 59.58 +04 12 48.0   G96 – Mt. Lemmon Survey MPS 797753
2017 05 14.36141 15 33 59.25 +04 12 50.5 19.3 V G96 – Mt. Lemmon Survey MPS 797753
2017 05 14.36569 15 33 59.07 +04 12 51.9 19.5 V G96 – Mt. Lemmon Survey MPS 797753
2017 05 14.36996 15 33 58.90 +04 12 53.6 19.3 V G96 – Mt. Lemmon Survey MPS 797753
2017 05 20.60664 15 29 30.25 +04 48 53.1 19.6 R D29 – Purple Mountain Observatory, XuYi Station MPS 799224
2017 05 20.62078 15 29 29.61 +04 48 56.5 19.9 R D29 – Purple Mountain Observatory, XuYi Station MPS 799224
